User: anonymous   Login
Location: Martley
(52.2333°N, 2.3667°W)
Time: 08:38:05
(UTC+00:00)
Language:

Cosmos 2034 Rocket - Orbit

View from above orbital plane
View from above orbital plane
View from above satellite
View from above satellite

Ground track
Ground track

The orbit data is extracted from the following two-line orbital elements,

1 20150U 89059B   20056.15844187 -.00000067 +00000-0 -85308-4 0  9993
2 20150 082.9366 084.8820 0030209 059.1948 001.9807 13.75646632535320
Epoch (UTC): 25 February 2020 03:48:09
Eccentricity: 0.0030209
inclination: 82.9366°
perigee height: 957 km
apogee height: 1001 km
right ascension of ascending node: 84.8820°
argument of perigee: 59.1948°
revolutions per day: 13.75646632
mean anomaly at epoch: 1.9807°
orbit number at epoch: 53532

The dashed part of the orbit path shows where the satellite is in the earth's shadow,  

DLR